Regional Weather Roundup
Issued by NWS

Home | Current Version | Previous Version | Graphics & Text | Print | Product List | Glossary On
Versions: 1 2 3 4 5 6 7 8 9 10 11 12 13 14 15 16 17 18 19 20 21 22 23 24 25 26 27 28 29 30 31 32 33 34 35 36 37 38 39 40 41 42 43 44 45 46 47 48 49 50
000
ASUS43 KMPX 180501
RWRMN
WEATHER ROUNDUP FOR MINNESOTA
NATIONAL WEATHER SERVICE TWIN CITIES/CHANHASSEN MN
1200 AM CDT FRI APR 18 2014


NOTE: "FAIR" INDICATES FEW OR NO CLOUDS BELOW 12,000 FEET WITH NO
SIGNIFICANT WEATHER AND/OR OBSTRUCTIONS TO VISIBILITY. N/A MEANS
CURRENT SKY AND/OR WEATHER CONDITIONS ARE NOT AVAILABLE.

MNZ060>063-068>070-180600-
   Twin Cities Metro

CITY           SKY/WX    TMP DP  RH WIND       PRES   REMARKS
TWIN CITIES    CLEAR     34  26  72 CALM      30.32R
ST PAUL        CLEAR     31  26  82 CALM      30.33R
CRYSTAL        CLEAR     28  23  81 CALM      30.30S
BLAINE         CLEAR     28  27  93 CALM      30.31R
EDEN PRAIRIE   CLEAR     32  24  72 CALM      30.30S
LAKEVILLE      CLEAR     28  25  86 CALM      30.32R
SOUTH ST PAUL  CLEAR     32  27  83 CALM      30.32S
LAKE ELMO      FAIR      28  28 100 CALM      30.32S
$$
MNZ001>005-007-008-013>017-022>024-027-028-180600-
   Northwest Minnesota

CITY           SKY/WX    TMP DP  RH WIND       PRES   REMARKS
BEMIDJI        MOCLDY    28   9  45 N3        30.28R
HALLOCK        CLOUDY    30  19  64 E7        30.31S WCI  23
ROSEAU         CLEAR     28  18  64 CALM      30.31S
WARROAD        CLEAR     25  16  68 CALM      30.31S
THIEF RVR FALL PTCLDY    30  18  59 N3        30.31R
CROOKSTON      PTCLDY    32  21  64 NE7       30.31S WCI  26
FOSSTON        MOCLDY    27  16  63 CALM      30.29S
DETROIT LAKES  PTCLDY    32  19  59 NE3       30.29S
MOORHEAD       CLOUDY    34  27  75 NE7       30.29F WCI  28
PARK RAPIDS    PTCLDY    29   9  43 N6        30.27R WCI  23
$$
MNZ006-009>011-018-025>026-180600-
   North Central Minnesota

CITY           SKY/WX    TMP DP  RH WIND       PRES   REMARKS
BAUDETTE       CLEAR     24  17  74 CALM      30.30S
FLAG ISLAND    CLEAR     27  10  50 N3        30.30S
INTL FALLS     CLEAR     22  19  89 CALM      30.30S
WASKISH        PTCLDY    23  18  80 CALM      30.30R
LONGVILLE      MOCLDY    28  21  74 CALM      30.28S
GRAND RAPIDS   PTCLDY    28  19  69 S5        30.29R WCI  23
CRANE LAKE     CLEAR     16  10  79 CALM      30.33S
ORR            CLEAR     21  18  86 CALM      30.28R
COOK           CLEAR     19  18  93 CALM      30.30S
$$
MNZ012-019>021-037-180600-
   Northeast Minnesota

CITY           SKY/WX    TMP DP  RH WIND       PRES   REMARKS
DULUTH         CLEAR     21  16  81 CALM      30.28S
ELY            CLEAR     25  19  80 CALM      30.29R
HIBBING        PTCLDY    23  19  85 CALM      30.29S
EVELETH        CLEAR     23  19  86 CALM      30.30S
DULUTH HARBOR  CLEAR     30  23  74 CALM      30.34R
TWO HARBORS    MOCLDY    30  19  64 CALM      30.28S
SILVER BAY     CLEAR     30  25  80 CALM      30.29S
GRAND MARAIS     N/A     32  30  92 NW3       30.30R
G MARAIS ARPRT CLOUDY    27  21  80 CALM      30.25R
$$
MNZ029>031-032-039>041-046>048-054>057-064-180600-
   West Central Minnesota

CITY           SKY/WX    TMP DP  RH WIND       PRES   REMARKS
FERGUS FALLS   PTCLDY    32  18  55 E3        30.27S
WHEATON        CLOUDY    34  27  75 E6        30.30S WCI  29
MORRIS         CLEAR     28  25  86 S3        30.28F
ALEXANDRIA     CLEAR     30  21  69 W6        30.29R WCI  24
ELBOW LAKE     MOCLDY    32  22  68 CALM      30.28F
WADENA         PTCLDY    28  16  59 NW5       30.27S WCI  23
GLENWOOD       CLEAR     28  19  69 W5        30.29S WCI  23
APPLETON       CLEAR     28  25  86 CALM      30.29F
BENSON         CLEAR     27  21  80 CALM      30.30S
ORTONVILLE     MOCLDY    28  19  69 S3        30.28F
MADISON        CLEAR     30  27  86 S5        30.29F WCI  25
WILLMAR        FAIR      28  21  74 CALM      30.32S
$$
MNZ033>034-036-042>043-049>051-058-059-180600-
   Central Minnesota

CITY           SKY/WX    TMP DP  RH WIND       PRES   REMARKS
ST CLOUD       CLEAR     25  20  81 W3        30.30R
SAUK CENTRE    FAIR      26  19  75 CALM      30.30R
PAYNESVILLE    CLEAR     27  21  80 CALM      30.31R
AITKIN         PTCLDY    32  23  69 CALM      30.28S
PINE RIVER     PTCLDY    30  21  69 E8        30.30S WCI  23
BRAINERD       PTCLDY    34  20  56 E3        30.28R
STAPLES        CLEAR     28  18  64 W3        30.27S
LONG PRAIRIE   FAIR      28  19  69 CALM      30.29R
LITTLE FALLS   CLEAR     28  21  74 CALM      30.29S
LITCHFIELD     CLEAR     28  27  93 W3        30.32R
BUFFALO        CLEAR     27  23  86 CALM      30.32S
MAPLE LAKE     CLEAR     27  25  94 CALM      30.32R
$$
MNZ037-044-045-052-053-180600-
   East Central Minnesota

CITY           SKY/WX    TMP DP  RH WIND       PRES   REMARKS
PRINCETON      CLEAR     27  21  80 CALM      30.30S
MORA           CLEAR     25  21  86 CALM      30.32S
CAMBRIDGE      CLEAR     28  21  74 CALM      30.29S
RUSH CITY      CLEAR     26  22  86 CALM      30.31S
MOOSE LAKE     CLEAR     27  23  86 CALM      30.29S
HINCKLEY       FAIR      27  23  86 CALM      30.31S
CLOQUET        PTCLDY    25  21  86 CALM      30.30R
MCGREGOR       PTCLDY    30  23  74 E3        30.30S
$$
MNZ071>073-080-081-089-090-097-098-180600-
   Southwest Minnesota

CITY           SKY/WX    TMP DP  RH WIND       PRES   REMARKS
MONTEVIDEO     CLEAR     28  23  80 SW5       30.31F WCI  23
GRANITE FALLS  CLEAR     25  21  86 S5        30.33S WCI  19
CANBY          PTCLDY    30  20  66 S3        30.30F
MARSHALL       PTCLDY    30  21  69 S5        30.29F WCI  25
REDWOOD FALLS  CLEAR     30  25  81 CALM      30.32R
OLIVIA         CLEAR     27  23  86 SW3       30.31R
PIPESTONE      CLOUDY    32  27  80 E7        30.26S WCI  26
WINDOM         CLOUDY    30  28  93 CALM      30.30S
WORTHINGTON    MOCLDY    30  23  74 NE6       30.30S WCI  24
JACKSON        MOCLDY    32  28  86 NE6       30.30S WCI  26
TRACY          CLOUDY    31  28  85 CALM      30.30S
SLAYTON        MOCLDY    31  27  87 E5        30.29S WCI  26
$$
MNZ065>067-074>077-082>085-091>093-180600-
   South Central Minnesota

CITY           SKY/WX    TMP DP  RH WIND       PRES   REMARKS
MANKATO        CLEAR     32  25  74 CALM      30.32S
NEW ULM        CLEAR     30  27  86 CALM      30.31S
ST JAMES       MOCLDY    34  28  80 CALM      30.32S
FAIRMONT       CLEAR     30  27  86 CALM      30.33R
GLENCOE        CLEAR     32  27  83 W3        30.31S
FARIBAULT      CLEAR     32  27  80 CALM      30.31S
OWATONNA       CLEAR     30  27  86 CALM      30.31S FOG
WASECA         CLEAR     32  30  93 CALM      30.32S FOG
ALBERT LEA     FOG       28  28 100 CALM      30.31S VSB 3/4
$$
MNZ078>079-086>088-094>096-180600-
   Southeast Minnesota

CITY           SKY/WX    TMP DP  RH WIND       PRES   REMARKS
ROCHESTER      CLEAR     31  26  82 S3        30.30S
RED WING       CLEAR     28  27  93 CALM      30.31S
STANTON        CLEAR     30  28  91 CALM      30.30S FOG
DODGE CENTER   PTCLDY    34  30  86 S3        30.30S
WINONA         CLEAR     34  30  86 CALM      30.34R
AUSTIN         CLEAR     28  28 100 CALM      30.31S
PRESTON        CLEAR     32  28  83 CALM      30.31S
$$
ABBREVIATIONS USED IN REMARKS
   TC - TEMPERATURES IN CELSIUS
  WCI - WIND CHILL INDEX
   HX - HEAT INDEX
  VSB - VISIBILITY
$$


USA.gov is the U.S. government's official web portal to all federal, state and local government web resources and services.